TimeEST,TemperatureF,Dew PointF,Humidity,Sea Level PressureIn,VisibilityMPH,Wind Direction,Wind SpeedMPH,Gust SpeedMPH,PrecipitationIn,Events,Conditions,WindDirDegrees,DateUTC
12:52 AM,16.0,12.0,84,30.29,10.0,Calm,Calm,-,N/A,,Clear,0,2013-03-09 05:52:00
1:52 AM,15.1,10.9,84,30.29,10.0,Calm,Calm,-,N/A,,Clear,0,2013-03-09 06:52:00
2:52 AM,12.0,8.1,84,30.28,10.0,Calm,Calm,-,N/A,,Clear,0,2013-03-09 07:52:00
3:52 AM,10.0,6.1,84,30.29,10.0,Calm,Calm,-,N/A,,Clear,0,2013-03-09 08:52:00
4:52 AM,9.0,5.0,84,30.31,10.0,Calm,Calm,-,N/A,,Clear,0,2013-03-09 09:52:00
5:52 AM,8.1,3.9,83,30.33,10.0,SSE,3.5,-,N/A,,Clear,160,2013-03-09 10:52:00
6:52 AM,9.0,5.0,84,30.35,10.0,Calm,Calm,-,N/A,,Clear,0,2013-03-09 11:52:00
7:52 AM,16.0,12.9,88,30.35,10.0,Calm,Calm,-,N/A,,Clear,0,2013-03-09 12:52:00
8:52 AM,26.1,18.0,71,30.35,10.0,Calm,Calm,-,N/A,,Clear,0,2013-03-09 13:52:00
9:52 AM,34.0,19.9,56,30.34,10.0,Calm,Calm,-,N/A,,Clear,0,2013-03-09 14:52:00
10:52 AM,39.0,18.0,43,30.32,10.0,Calm,Calm,-,N/A,,Clear,0,2013-03-09 15:52:00
11:52 AM,44.1,15.1,31,30.32,10.0,Calm,Calm,-,N/A,,Clear,0,2013-03-09 16:52:00
12:52 PM,46.0,14.0,28,30.30,10.0,SE,3.5,-,N/A,,Clear,140,2013-03-09 17:52:00
1:52 PM,48.9,14.0,25,30.28,10.0,Calm,Calm,-,N/A,,Clear,0,2013-03-09 18:52:00
2:52 PM,50.0,16.0,26,30.27,10.0,Calm,Calm,-,N/A,,Clear,0,2013-03-09 19:52:00
3:52 PM,52.0,14.0,22,30.28,10.0,Calm,Calm,-,N/A,,Clear,0,2013-03-09 20:52:00
4:52 PM,51.1,15.1,24,30.29,10.0,NNW,3.5,-,N/A,,Clear,340,2013-03-09 21:52:00
5:52 PM,36.0,19.9,52,30.32,10.0,Calm,Calm,-,N/A,,Clear,0,2013-03-09 22:52:00
6:52 PM,30.9,19.9,64,30.34,10.0,Calm,Calm,-,N/A,,Clear,0,2013-03-09 23:52:00
7:52 PM,28.0,19.9,72,30.35,10.0,Calm,Calm,-,N/A,,Clear,0,2013-03-10 00:52:00
8:52 PM,27.0,19.9,75,30.36,10.0,Calm,Calm,-,N/A,,Clear,0,2013-03-10 01:52:00
9:52 PM,24.1,19.0,81,30.35,10.0,Calm,Calm,-,N/A,,Clear,0,2013-03-10 02:52:00
10:52 PM,23.0,18.0,81,30.35,10.0,Calm,Calm,-,N/A,,Clear,0,2013-03-10 03:52:00
11:52 PM,19.9,16.0,85,30.34,10.0,Calm,Calm,-,N/A,,Clear,0,2013-03-10 04:52:00